Regional Weather Roundup
Issued by NWS Goodland, KS

Home | Current Version | Previous Version | Graphics & Text | Print | Product List | Glossary On
Versions: 1 2 3 4 5 6 7 8 9 10 11 12 13 14 15 16 17 18 19 20 21 22 23 24 25 26 27 28 29 30 31 32 33 34 35 36 37 38 39 40 41 42 43 44 45 46 47 48 49 50
000
ASUS43 KGLD 201959
RWRGLD

GOODLAND FORECAST AREA HOURLY WEATHER ROUNDUP
NATIONAL WEATHER SERVICE GOODLAND KS
200 PM MDT WED AUG 20 2014

...OFFICIAL OBSERVATIONS...

CITY           SKY/WX    TMP DP  RH WIND       PRES   REMARKS
GOODLAND KS    MOSUNNY   93  53  25 VRB3      29.82F
HILL CITY KS   MOSUNNY   97  65  34 S15G26    29.75S
IMPERIAL NEB   SUNNY     88  59  37 VRB6      29.81F
MCCOOK NEB     MOSUNNY   96  60  30 S8        29.75S
AKRON CO       SUNNY     85  52  32 VRB7      29.90F
BURLINGTON CO  MOSUNNY   91  50  24 N6        29.86F
LIMON CO       PTSUNNY   88  45  22 NE5       29.94F
$$

...UNOFFICIAL OBSERVATIONS...

CITY           SKY/WX    TMP DP  RH WIND       PRES   REMARKS
COLBY KS       SUNNY     91  66  43 S5        29.80F
LENORA KS        N/A     91  32  12 CALM        N/A
NORTON KS      SUNNY     97  55  24 S13G24    29.74F
SHARON SPRINGS   N/A     97  55  24 SW12G21     N/A
WAKEENEY KS      N/A     94  57  28 MISG        N/A
KIT CARSON CO    N/A     92  50  23 MISG        N/A
YUMA CO          N/A     85  53  33 NE7G14      N/A
$$


USA.gov is the U.S. government's official web portal to all federal, state and local government web resources and services.